www.pogodaiklimat.ru

Погода и климат >> Архив погоды >> Россия >> Ханты-Мансийский АО >> Нефтеюганск


ПОГОДА в Нефтеюганске

АРХИВ ПОГОДЫ в Нефтеюганске

Время (UTC), дата Ветер
(напр.,м/с)
 
Видим.   Явления Облачность Т
(С)
Тd
(С)
f
(%)
Тe
(С)
Тes
(С)
Комфортность P
(гПа)
Po
(гПа)
Тmin
(С)
Tmax
(С)
R
(мм)
R24
(мм)
S
(см)
06 17.08 СЗ 2 50 км 6/6 600 м
[Cb cap]
+16.9 +11.4 70 +17 +21 тепло 1020.1 1015.3
09 17.08 СЗ 4 50 км 9/8 600 м
[Cb cap Ci fib]
+17.8 +8.0 53 +18 +19 тепло 1020.1 1015.3
12 17.08 СЗ 3 50 км 7 баллов +17.0 +9.4 61 +17 +17 по сезону 1022.1 1017.3
15 17.08 С 1
{8}
50 км 5 баллов +11.6 +9.2 85 +11 +11 прохладно 1022.2 1017.3 +18.3 0.1
18 17.08 СЗ 2 20 км 3/3 600 м
[Sc diur, vesp]
+8.4 +7.1 92 +6 +6 холодно 1022.3 1017.4
21 17.08 СЗ 1 20 км 3/0
[Ac trans]
+8.3 +7.1 92 +7 +7 прохладно 1022.8 1017.9
00 18.08 СЗ 1 50 км 8/0
[Ac trans]
+8.3 +7.2 93 +7 +7 по сезону 1023.4 1018.5
03 18.08 СЗ 2
{3}
50 км 8/3 600 м
[Cb cap Ac trans]
+11.5 +9.9 90 +10 +12 по сезону 1024.3 1019.4 +6.8
06 18.08 СЗ 3 50 км 5/5 600 м
[Cu med, cong]
+17.0 +9.4 61 +17 +21 тепло 1024.0 1019.2
09 18.08 СЗ 4 50 км {ливн. осадки} 8/8 600 м
[Cb cap]
+16.4 +7.6 56 +16 +17 по сезону 1023.5 1018.7
12 18.08 СЗ 3 50 км 4 балла +17.9 +6.1 46 +18 +19 тепло 1023.5 1018.7
15 18.08 СЗ 1
{9}
50 км 7 баллов +10.6 +7.8 83 +10 +10 прохладно 1023.6 1018.7 +18.2 0.0
18 18.08 З 2 20 км 9/0
[Ac trans Ci fib]
+9.2 +7.6 90 +7 +7 прохладно 1022.2 1017.3
21 18.08 З 2 20 км 8/0
[Ac trans Ci fib]
+9.9 +6.4 79 +8 +8 по сезону 1021.0 1016.1
00 19.08 ЮЗ 3 50 км 9/3 600 м
[Cb cap Ac trans Ci fib]
+9.4 +5.3 76 +7 +7 по сезону 1019.7 1014.8
03 19.08 ЮЗ 2
{6}
50 км {ливн. осадки} 9/9 600 м
[Cb cap]
+11.0 +8.4 84 +10 +10 по сезону 1019.1 1014.2 +8.9 0.0
06 19.08 ЮЗ 3 50 км {ливн. осадки} 9/3 600 м
[Sc Ac trans]
+16.2 +9.7 65 +16 +18 по сезону 1017.6 1012.8
09 19.08 З 7
{13}
10 км слабый ливневой дождь 10 баллов +17.7 +11.5 67 +17 +17 тепло 1018.1 1013.3
12 19.08 З 4
{13}
50 км 7 баллов +16.3 +11.2 72 +16 +16 по сезону 1018.1 1013.3
15 19.08 З 2
{13}
50 км 6 баллов +13.9 +11.6 86 +13 +13 по сезону 1019.5 1014.7 +19.0 2
18 19.08 С 1 20 км 8/0
[Ac trans]
+12.2 +11.1 93 +12 +12 по сезону 1018.4 1013.6
21 19.08 З 2 500 м туман ясно +9.8 +8.9 94 +8 +8 по сезону 1018.6 1013.7
00 20.08 СЗ 1 4000 м дымка 7 баллов +8.7 +7.9 95 +8 +8 по сезону 1020.9 1016.0
03 20.08 СВ 1
{4}
50 км 8/0
[Ci fib]
+13.4 +12.1 92 +14 +17 тепло 1020.5 1015.6 +8.3
06 20.08 С 1 50 км 10/5 600 м
[Cu hum Cs]
+16.7 +10.2 65 +18 +22 тепло 1020.4 1015.6
09 20.08 В 2 50 км 8/3 600 м
[Cu hum Ci sp]
+19.9 +10.1 53 +22 +26 комфорт 1019.8 1015.1
12 20.08 В 2 50 км 9/5 600 м
[Cb cap Ac trans Ci fib]
+18.6 +11.2 62 +20 +20 тепло 1019.2 1014.4
15 20.08 ЮВ 1
{4}
50 км 10 баллов +15.6 +12.3 81 +16 +16 тепло 1019.5 1014.7 +20.3
18 20.08 ЮВ 2 20 км в посл. час ливневой дождь 10/8 600 м
[Cb cap As op]
+14.6 +13.2 91 +14 +14 тепло 1018.8 1014.0
21 20.08 Ю 1 20 км 9/4 600 м
[Cb cap Ac trans]
+14.0 +12.8 92 +14 +14 тепло 1018.0 1013.2
00 21.08 Ю 1 50 км 3/0
[Ac trans]
+12.9 +11.7 92 +13 +13 тепло 1018.4 1013.6
03 21.08 ЮЗ 2
{3}
50 км 8/0
[Cs]
+17.0 +13.9 82 +17 +20 тепло 1018.2 1013.4 +12.9 2
06 21.08 ЮЗ 3 50 км 3/1 600 м
[Cu hum Ci sp]
+21.9 +15.2 66 +25 +32 комфорт 1017.5 1012.8
09 21.08 ЮЗ 4 50 км 4/3 600 м
[Cu med, cong Ci fib]
+23.8 +12.5 49 +26 +29 жарко 1016.5 1011.9
12 21.08 З 4 50 км 9/3 600 м
[Cu med, cong Ac trans Ci sp]
+23.2 +13.6 55 +27 +27 душно 1016.0 1011.4
15 21.08 ЮЗ 2
{9}
50 км 7 баллов +19.7 +14.1 70 +22 +22 комфорт 1016.7 1012.0 +24.2
18 21.08 ЮЗ 3 20 км 9/0
[Ac trans Ci fib]
+18.5 +14.1 76 +19 +19 тепло 1014.9 1010.2
21 21.08 З 5 20 км 10/4 600 м
[Cb cap As op]
+19.0 +14.6 76 +20 +20 тепло 1014.0 1009.3
00 22.08 СЗ 4 50 км 8/3 600 м
[Sc diur, vesp Ac trans Ci sp]
+17.5 +15.6 89 +17 +17 тепло 1015.5 1010.8
03 22.08 СЗ 4
{8}
50 км 5 баллов +18.9 +14.8 77 +20 +21 тепло 1018.0 1013.3 +17.2
06 22.08 СЗ 4 50 км 4/3 600 м
[Cu med, cong Ci fib]
+22.7 +11.4 49 +25 +29 комфорт 1019.0 1014.3
09 22.08 СЗ 5 50 км 9/4 600 м
[Cb cap Ac trans]
+24.4 +11.0 43 +26 +27 жарко 1019.8 1015.1
12 22.08 З 2 50 км 8/3 600 м
[Cb cap Ac trans]
+22.6 +12.8 54 +25 +26 комфорт 1020.2 1015.6
15 22.08 СЗ 1
{8}
50 км 4 балла +16.6 +14.6 88 +17 +17 тепло 1022.1 1017.3 +24.4
18 22.08 СЗ 1 20 км 3/0
[Ci fib]
+14.8 +13.5 92 +15 +15 тепло 1021.7 1016.9
21 22.08 З 1 20 км ясно +12.9 +11.8 93 +13 +13 тепло 1022.6 1017.8
00 23.08 Ю 1 50 км 4/0
[Ci fib]
+11.5 +10.6 94 +11 +11 тепло 1023.2 1018.3
03 23.08 З 1
{5}
50 км 9 баллов +17.1 +13.4 79 +18 +18 тепло 1024.8 1020.0 +11.4
06 23.08 З 4 50 км 10/5 600 м
[Cb cap Ac trans Cs]
+23.3 +15.0 60 +27 +29 душно 1023.1 1018.4
09 23.08 ЮЗ 5
{10}
50 км 10/0
[Ac trans Cs]
+25.9 +15.0 51 +29 +31 душно 1022.0 1017.4
12 23.08 ЮЗ 4 50 км 10/4 600 м
[Sc Ac und]
+26.1 +15.5 52 +29 +29 жарко 1021.0 1016.4
15 23.08 З 3
{10}
50 км в посл. час ливневой дождь 9/5 600 м
[Cb cap Ac cast Ci fib]
+22.8 +17.3 71 +28 +28 душно 1020.5 1015.9 +26.8 0.0
18 23.08 З 3 20 км {ливн. осадки} 3/0
[Ac trans]
+20.3 +15.9 76 +23 +23 комфорт 1020.4 1015.7
21 23.08 З 3 20 км ясно +18.5 +15.8 84 +19 +19 тепло 1020.7 1016.0
00 24.08 СЗ 2 50 км 4/3 600 м
[Cb cap Ac trans]
+17.8 +15.6 87 +18 +18 тепло 1021.6 1016.9
03 24.08 З 2
{6}
50 км 5 баллов +20.9 +16.7 77 +25 +27 комфорт 1022.0 1017.3 +17.2

 

Местоположение метеостанции Нефтеюганск (Ханты-Мансийский АО, Россия): широта 61.07 долгота 72.62 высота над уровнем моря 40 м.

В архиве по умолчанию представлена погода в Нефтеюганске за последнюю неделю. Архивные данные за месяц целиком и за предыдущие месяцы, начиная с января 2011 года, Вы можете получить, выбрав интересующий диапазон дат из раскрывающегося списка и нажав кнопку "Ввод!".

Внимание! Время в таблицах - всемирное. Для получения местного времени необходимо прибавить поправку, которая в Нефтеюганске равна 5 ч.

Смотрите также архив погоды в соседних городах и на ближайших метеорологических станциях:

Погода в Сургуте (Ханты-Мансийский АО, Россия) (52 км)
Погода в Сытомино (Ханты-Мансийский АО, Россия) (75 км)
Погода в Угуте (Ханты-Мансийский АО, Россия) (99 км)
Погода в Салыме (Ханты-Мансийский АО, Россия) (127 км)
Погода в Когалыме (Ханты-Мансийский АО, Россия) (164 км)
Погода в Таурово (Ханты-Мансийский АО, Россия) (170 км)
Погода в Ханты-Мансийске (Ханты-Мансийский АО, Россия) (188 км)
Погода в Нижнесортымском (Ханты-Мансийский АО, Россия) (193 км)
Погода в Алтае (Ханты-Мансийский АО, Россия) (215 км)
Погода в Нижневартовске (Ханты-Мансийский АО, Россия) (215 км)

Пояснения к столбцам:

Ветер - указаны скорость ветра в м/с - средняя за 10 мин, порывы в срок и между сроками (в фигурных скобках) и направление, откуда дует ветер: С - северный, СВ - северо-восточный, В - восточный, ЮВ - юго-восточный, Ю - южный, ЮЗ - юго-западный, З - западный, СЗ - северо-западный.
Видимость - горизонтальная дальность видимости в метрах или километрах. При видимости от 1 до 10 км при отсутствии осадков обычно наблюдается дымка, при ухудшении видимости до 1 км и менее - туман. В сухую погоду видимость может ухудшаться дымом, пылью или мглою.
Явления - указаны атмосферные явления, наблюдавшиеся в срок или в последний час перед сроком; фигурными скобками обозначены явления, наблюдавшиеся между сроками (за 1-3 часа до срока); квадратными скобками обозначены град или гололедные отложения с указанием их диаметра в мм.
Облачность - указаны через наклонную черту общая и нижняя облачность в баллах и высота нижней границы облаков в метрах; квадратными скобками обозначены формы облаков: Ci - перистые, Cs - перисто-слоистые, Cc - перисто-кучевые, Ac - высококучевые, As - высокослоистые, Sc - слоисто-кучевые, Ns - слоисто-дождевые, Cu - кучевые, Cb - кучево-дождевые. Подробнее классификацию облаков см. в Атласе облаков (PDF).
T - Температура воздуха - температура, измеренная на высоте 2 м над землей.
Td - Температура точки росы - температура, при понижении до которой содержащийся в воздухе водяной пар достигнет насыщения.
f - Относительная влажность воздуха - влажноcть воздуха, измеренная на высоте 2 м над землей.
Te - Эффективная температура - температура, которую ощущает одетый по сезону человек в тени. Характеристика душности погоды. При расчете учитывается влияние влажности воздуха и скорости ветра на теплоощущения человека.
Tes - Эффективная температура на солнце - температура, которую ощущает человек, с поправкой на солнечный нагрев. Характеристика знойности погоды. Зависит от высоты солнца над горизонтом, облачности и скорости ветра. Ночью, в пасмурную погоду, а также при ветре 12 м/с и более поправка равна нулю.
P - Атмосферное давление - приведенное к уровню моря атмосферное давление.
Po - Атмосферное давление - измеренное на уровне метеостанции атмосферное давление.
Tmin - Минимальная температура - минимум температуры воздуха на высоте 2 м над землей.
Tmax - Максимальная температура - максимум температуры воздуха на высоте 2 м над землей.
R - Количество осадков - Количество выпавших осадков за период времени, мм. При наведении курсора мыши на число - период времени, за который выпало указанное количество осадков.
R24 - Количество осадков - Количество выпавших осадков за 24 часа, мм.
S - Снежный покров - Высота снежного покрова, см. При наведении курсора мыши на число - состояние снежного покрова и степень покрытия местности в баллах.